Location: Aucun
(42.9667°N, 0.1667°W)
Time: 04:28:48
(UTC+00:00)

Daily predictions for brighter satellites

Satellite Brightness Start Highest point End
(mag) Time Altitude Azimuth Time Altitude Azimuth Time Altitude Azimuth
CZ-4C R/B 4.1 03:29:40 24° NNE 03:29:40 24° NNE 03:32:03 10° NNE
USA 229 DEB 4.2 03:35:49 62° E 03:35:49 62° E 03:42:36 10° SE
USA 229 4.2 03:35:52 62° E 03:35:52 62° E 03:42:41 10° SE
ATLAS CENTAUR R/B 4.1 03:43:09 19° NE 03:43:09 19° NE 03:44:35 10° NE
Cosmos 2237 Rocket 3.7 04:03:02 26° N 04:03:02 26° N 04:05:30 10° NNE
Cosmos 2251 Rocket 4.4 04:01:11 46° ENE 04:01:11 46° ENE 04:05:34 10° NNE
Cosmos 2219 Rocket 4.4 04:14:45 13° N 04:14:45 13° N 04:15:37 10° N
GEOS 3 Rocket 3.8 04:15:50 10° NE 04:21:09 68° SE 04:21:26 67° SSE
ADEOS 4.4 04:21:41 10° N 04:25:00 39° N 04:25:00 39° N
Meteor 2-10 Rocket 3.5 04:27:19 79° NNE 04:27:19 79° NNE 04:32:14 10° N
Cosmos 1943 Rocket 3.2 04:31:53 10° NNW 04:37:08 43° ENE 04:42:21 10° SE
Cosmos 2297 3.5 04:37:32 74° W 04:37:45 76° WSW 04:43:22 10° SSE
NOSS 3-1 (C) 4.1 04:36:43 45° WNW 04:39:04 61° WSW 04:47:35 10° SSE
STARLINK-1053 4.4 04:40:54 45° SE 04:40:54 45° SE 04:43:51 10° SE
Lacrosse 5 2.9 04:38:34 30° N 04:40:18 40° NNE 04:45:03 10° ESE
SL-16 R/B 2.1 04:41:35 66° WNW 04:41:42 66° WNW 04:47:22 10° NNE
Cosmos 292 Rocket 3.7 04:43:28 52° N 04:44:37 83° ENE 04:49:21 10° SSE
STARLINK-1061 4.2 04:45:43 49° SSE 04:45:43 49° SSE 04:48:50 10° SE
Cosmos 1339 Rocket 4.3 04:41:19 10° S 04:47:24 85° W 04:53:32 10° N
Gbstr 26 Del rocket 4.5 04:46:44 46° WSW 04:47:46 49° SW 04:55:20 10° SSE
CZ-2C R/B 2.6 04:43:02 10° N 04:47:46 58° NW 04:47:46 58° NW
STARLINK-1067 4.1 04:50:29 52° SSE 04:50:29 52° SSE 04:53:46 10° SE
SKYMED 2 4.4 04:48:52 10° SSE 04:53:03 49° ENE 04:57:15 10° N
STARLINK-1058 3.9 04:55:15 53° S 04:55:15 53° S 04:58:42 10° SE
Cosmos 2369 Rocket 3.0 04:52:09 10° NNW 04:57:43 50° ENE 05:03:15 10° SE
FENGYUN 3A 4.5 04:53:10 10° NNE 04:58:29 52° E 05:03:45 10° S
STARLINK-1043 3.9 05:00:02 52° SSW 05:00:02 52° SSW 05:03:38 10° SE
NOSS 2-1 (E) 4.4 05:01:57 28° N 05:01:57 28° N 05:04:15 10° NNE
Cosmos 1500 Rocket 4.1 04:58:21 10° N 05:02:46 60° E 05:07:06 10° SSE
Okean O Rocket 4.0 05:00:08 10° NE 05:03:44 24° E 05:07:17 10° SSE
STARLINK-1065 3.9 05:04:25 50° SSW 05:04:25 50° SSW 05:08:08 10° SE
Cosmos 1943 4.3 04:59:52 10° S 05:05:07 43° ESE 05:10:25 10° NE
BREEZE-M DEB (TANK) 4.1 05:04:51 45° WNW 05:05:52 56° NNW 05:15:26 10° ENE
Meteor 2-3 Rocket 3.7 05:01:00 10° N 05:06:47 88° W 05:12:35 10° S
STARLINK-1063 3.9 05:09:35 46° SW 05:09:35 46° SW 05:13:28 10° SSE
Meteor PRIRODA 3.5 05:08:13 10° N 05:11:57 81° WNW 05:14:07 23° SSW
STARLINK-1124 4.1 05:11:29 30° SSE 05:12:04 33° SE 05:14:44 10° ENE
Cosmos 1743 Rocket 3.5 05:09:52 10° N 05:14:13 87° E 05:18:33 10° S
STARLINK-1064 4.0 05:14:22 42° SW 05:14:27 42° SW 05:18:22 10° SSE
STARLINK-1092 4.5 05:14:46 23° S 05:15:46 29° SE 05:18:22 10° ENE
CZ-4C R/B 3.8 05:14:51 18° NW 05:15:53 19° NNW 05:20:15 10° NNE
STARLINK-1080 4.5 05:15:00 23° S 05:16:00 29° SE 05:18:36 10° ENE
STARLINK-1090 4.5 05:15:12 23° S 05:16:13 29° SE 05:18:49 10° ENE
STARLINK-1089 4.5 05:15:24 23° S 05:16:26 29° SE 05:19:02 10° ENE
STARLINK-1107 4.5 05:15:38 23° S 05:16:40 29° SE 05:19:16 10° ENE
STARLINK-1109 4.4 05:15:51 23° S 05:16:54 30° SE 05:19:30 10° ENE
STARLINK-1091 4.4 05:16:04 23° S 05:17:08 30° SE 05:19:45 10° ENE
Cosmos 1484 Rocket 2.7 05:13:17 10° N 05:17:12 65° WNW 05:20:21 15° SSW
STARLINK-1072 4.4 05:16:16 23° S 05:17:21 30° SE 05:19:58 10° ENE
STARLINK-1096 4.4 05:16:31 23° S 05:17:34 30° SE 05:20:10 10° ENE
STARLINK-1079 4.4 05:16:42 23° S 05:17:47 30° SE 05:20:25 10° ENE
STARLINK-1116 4.4 05:16:56 23° S 05:18:01 30° SE 05:20:39 10° ENE
BREEZE M DEB (TANK) 3.8 05:08:49 18° WNW 05:18:04 55° SW 05:22:03 10° SSE
STARLINK-1094 4.4 05:17:21 23° S 05:18:27 31° SE 05:21:06 10° ENE
CZ-4B R/B 2.9 05:15:06 10° N 05:18:23 45° WNW 05:18:23 45° WNW
STARLINK-1117 4.4 05:17:34 23° S 05:18:41 31° SE 05:21:19 10° ENE
STARLINK-1078 4.4 05:17:48 23° S 05:18:55 31° SE 05:21:33 10° ENE
STARLINK-1108 4.3 05:18:00 23° S 05:19:07 31° SE 05:21:46 10° ENE
ATLAS CENTAUR R/B 2.7 05:19:22 27° NW 05:19:22 27° NW 05:23:09 10° NNE
STARLINK-1071 4.3 05:18:14 23° S 05:19:21 31° SE 05:21:59 10° ENE
STARLINK-1041 4.1 05:19:09 38° SW 05:19:24 38° SW 05:23:15 10° SSE
STARLINK-1110 4.3 05:18:27 23° S 05:19:35 32° SE 05:22:15 10° ENE
STARLINK-1122 4.3 05:18:53 23° S 05:20:02 32° SE 05:22:42 10° ENE
STARLINK-1126 4.3 05:19:06 23° S 05:20:15 32° SE 05:22:55 10° ENE
STARLINK-1082 4.3 05:19:18 23° S 05:20:29 32° SE 05:23:09 10° ENE
STARLINK-1100 4.3 05:19:31 23° S 05:20:42 32° SE 05:23:22 10° ENE
STARLINK-1083 4.3 05:19:44 23° S 05:20:55 33° SE 05:23:35 10° ENE
ALOS 2.2 05:16:24 10° NNE 05:21:07 86° ESE 05:25:46 10° SSW
STARLINK-1125 4.3 05:19:58 23° S 05:21:09 33° SE 05:23:50 10° ENE
Cosmos 1459 Rocket 4.4 05:15:44 10° N 05:21:53 66° E 05:28:04 10° SSE
H-2A R/B 3.0 05:19:31 10° N 05:23:37 41° WNW 05:25:10 30° WSW
STARLINK-1038 4.3 05:23:55 34° WSW 05:24:20 35° SW 05:28:07 10° SSE
Cosmos 1842 Rocket 3.7 05:21:11 10° SSW 05:25:32 52° WNW 05:29:56 10° N
Cosmos 614 Rocket 4.0 05:20:32 10° SSW 05:25:40 85° ESE 05:30:54 10° NNE
STARLINK-1118 3.7 05:25:58 27° S 05:26:48 36° SE 05:29:14 10° ENE
STARLINK-1046 4.4 05:28:42 30° WSW 05:29:18 32° SW 05:32:59 10° SSE
PSLV R/B 3.5 05:25:42 10° N 05:29:25 71° WNW 05:33:10 10° SSW
NOSS 3-1 (A) 4.5 05:26:46 15° NW 05:32:55 44° WSW 05:41:01 10° S
Meteor 1-27 4.1 05:28:01 10° SSW 05:33:32 62° WNW 05:39:03 10° N
Cosmos 1802 Rocket 4.4 05:28:45 10° N 05:35:12 70° E 05:41:35 10° SSE
Cosmos 1633 3.1 05:31:48 10° N 05:35:24 61° E 05:39:01 10° SSE
PAYLOAD B 4.4 05:30:54 10° NNE 05:36:31 76° ESE 05:42:03 10° S
Shenzhou-11 Module 3.6 05:37:10 16° SSW 05:38:33 24° SSE 05:40:48 10° E
Aureole 2 Rocket 2.4 05:37:59 10° NNW 05:40:58 68° ENE 05:44:06 10° SSE
COSMO-SKYMED 1 2.7 05:36:51 10° S 05:41:03 49° W 05:45:17 10° NNW
NOAA 6 4.3 05:38:37 10° NNE 05:43:49 73° ESE 05:48:57 10° S
Meteor 1-31 Rocket 4.2 05:41:39 10° NNW 05:43:49 19° NW 05:43:49 19° NW
Cosmos 2237 Rocket 4.2 05:44:52 10° NW 05:45:24 10° NW 05:46:29 10° NNW
USA 116 3.0 05:43:48 10° S 05:47:04 74° WSW 05:50:11 10° NNW
Cosmos 921 Rocket 3.0 05:44:54 10° NNW 05:49:22 89° ENE 05:53:43 10° SSE
STARLINK-1111 4.5 05:46:41 10° SSW 05:50:31 47° SE 05:54:22 10° ENE
STARLINK-1119 4.4 05:48:54 10° SSW 05:52:42 49° SE 05:56:33 10° ENE
STARLINK-1073 4.3 05:51:10 10° SW 05:55:02 51° SE 05:58:56 10° ENE
STARLINK-1114 4.2 05:53:09 10° SW 05:57:00 54° SE 06:00:53 10° ENE
Cosmos 2221 3.2 05:53:26 10° SW 05:57:12 30° WNW 06:01:02 10° NNW
Cosmos 1400 Rocket 3.6 05:53:58 10° S 05:57:52 56° E 06:01:51 10° NNE
BREEZE-M DEB (TANK) 4.3 05:54:48 13° WNW 05:59:14 85° NNE 06:19:26 10° ESE
STARLINK-1121 4.2 05:55:40 10° SW 05:59:35 56° SE 06:03:30 10° ENE
Cosmos 1869 3.7 05:57:06 10° SSW 06:00:53 40° WNW 06:04:41 10° N
STARLINK-1130 (DARKSAT) 4.1 05:57:26 10° SW 06:01:20 59° SE 06:05:13 10° ENE
SMAP 4.3 05:57:53 10° NNE 06:02:23 46° E 06:06:51 10° S
STARLINK-1106 4.0 06:00:14 10° SW 06:04:10 61° SE 06:08:08 10° ENE
STARLINK-1084 3.9 06:01:45 10° SW 06:05:40 64° SE 06:09:35 10° ENE
Cosmos 2016 Rocket 4.0 06:00:08 10° N 06:06:23 83° W 06:12:41 10° S
ATLAS 2AS CENTAUR R/B 4.5 06:01:40 10° NNW 06:08:12 29° NNE 06:14:18 10° E
STARLINK-1112 3.9 06:04:51 10° SW 06:08:49 67° SE 06:12:49 10° ENE
Helios 1A Rocket 3.0 06:06:51 10° NNE 06:11:01 88° E 06:15:09 10° SSW
Cosmos 1238 Rocket 3.8 06:13:39 10° NNW 06:19:46 61° W 06:24:58 10° S
Cosmos 1943 Rocket 3.0 06:16:04 10° NW 06:20:37 27° WSW 06:25:12 10° SSW
Lacrosse 5 2.4 06:18:30 10° WNW 06:23:18 43° SW 06:28:04 10° SSE
Cosmos 2233 Rocket 4.4 06:18:52 10° N 06:25:09 72° E 06:31:26 10° SSE
SL-16 R/B 4.0 06:24:30 10° WNW 06:26:58 13° NW 06:29:26 10° NNW
ADEOS Rocket 3.2 06:21:56 10° S 06:27:56 61° W 06:34:40 10° NNW
Cosmos 1954 Rocket 4.1 06:25:28 10° SSW 06:30:43 61° WNW 06:36:01 10° NNE
Cosmos 1470 Rocket 4.5 06:26:56 10° N 06:31:20 55° E 06:35:43 10° SSE
